QPF
0.11 0.08 0.10 0.15 0.19 0.19 0.15 0.08 0.03 0.01 0.00 0.00 0.00 0.00 0.00 0.01 0.10 0.11 0.03 0.09 0.12 0.06 0.04 0.03 0.00 0.00 0.00 0.00 0.00 0.00 0.00 0.00 0.02 0.03 0.01 0.01 0.00 0.00 0.00 0.00 0.00 0.00 0.00 0.00 0.00 0.00 0.00 0.00 0.00 0.00 0.00 0.00 0.00 0.00
0.08 0.10 0.15 0.17 0.19 0.15 0.09 0.04 0.01 0.00 0.00 0.00 0.01 0.00 0.02 0.03 0.07 0.08 0.02 0.06 0.12 0.11 0.03 0.03 0.00 0.00 0.00 0.00 0.00 0.00 0.00 0.00 0.00 0.02 0.00 0.00 0.00 0.00 0.00 0.00 0.00 0.00 0.00 0.00 0.00 0.00 0.00 0.00 0.00 0.00 0.00 0.00 0.00 0.00
0.10 0.11 0.12 0.12 0.11 0.07 0.04 0.02 0.00 0.00 0.01 0.00 0.01 0.01 0.06 0.04 0.06 0.08 0.02 0.03 0.09 0.12 0.02 0.02 0.04 0.00 0.00 0.00 0.00 0.00 0.00 0.01 0.02 0.02 0.04 0.02 0.01 0.00 0.00 0.00 0.00 0.00 0.00 0.00 0.00 0.00 0.00 0.00 0.00 0.00 0.00 0.00 0.00 0.00
0.05 0.05 0.05 0.05 0.04 0.03 0.01 0.00 0.00 0.01 0.05 0.01 0.02 0.05 0.09 0.05 0.07 0.08 0.01 0.05 0.06 0.17 0.09 0.02 0.09 0.04 0.02 0.00 0.00 0.00 0.01 0.01 0.03 0.05 0.06 0.01 0.01 0.00 0.00 0.00 0.00 0.00 0.00 0.00 0.00 0.00 0.00 0.00 0.00 0.00 0.00 0.00 0.00 0.00
0.01 0.01 0.01 0.01 0.00 0.00 0.00 0.01 0.02 0.08 0.11 0.05 0.04 0.09 0.13 0.06 0.09 0.05 0.01 0.05 0.04 0.16 0.13 0.02 0.04 0.04 0.07 0.05 0.00 0.00 0.00 0.00 0.05 0.06 0.03 0.01 0.00 0.00 0.00 0.00 0.00 0.00 0.00 0.00 0.00 0.00 0.00 0.00 0.00 0.00 0.00 0.00 0.00 0.00
0.03 0.04 0.03 0.03 0.02 0.02 0.04 0.06 0.09 0.16 0.09 0.04 0.04 0.11 0.11 0.05 0.04 0.01 0.02 0.06 0.06 0.11 0.15 0.03 0.01 0.01 0.10 0.12 0.05 0.05 0.07 0.05 0.03 0.04 0.01 0.00 0.00 0.00 0.00 0.00 0.00 0.00 0.00 0.00 0.00 0.00 0.00 0.00 0.00 0.00 0.00 0.00 0.00 0.00
0.03 0.04 0.04 0.04 0.05 0.07 0.09 0.10 0.12 0.12 0.04 0.03 0.04 0.09 0.06 0.03 0.02 0.01 0.02 0.03 0.02 0.04 0.07 0.04 0.01 0.01 0.05 0.09 0.05 0.04 0.05 0.08 0.08 0.07 0.06 0.07 0.04 0.01 0.00 0.00 0.00 0.00 0.00 0.00 0.00 0.00 0.00 0.00 0.00 0.00 0.00 0.00 0.00 0.00
0.00 0.00 0.01 0.01 0.02 0.03 0.04 0.04 0.05 0.03 0.01 0.01 0.02 0.01 0.00 0.04 0.03 0.01 0.12 0.14 0.04 0.03 0.11 0.15 0.08 0.09 0.02 0.02 0.03 0.01 0.02 0.04 0.07 0.10 0.08 0.09 0.10 0.11 0.05 0.00 0.00 0.00 0.00 0.00 0.00 0.00 0.00 0.00 0.00 0.00 0.00 0.00 0.00 0.00
0.00 0.00 0.00 0.00 0.00 0.00 0.00 0.00 0.00 0.00 0.00 0.00 0.00 0.01 0.05 0.09 0.05 0.02 0.32 0.40 0.18 0.17 0.19 0.14 0.13 0.19 0.05 0.00 0.01 0.01 0.01 0.04 0.05 0.03 0.03 0.06 0.07 0.08 0.08 0.01 0.00 0.00 0.00 0.00 0.00 0.00 0.00 0.00 0.00 0.00 0.00 0.00 0.00 0.00
0.00 0.00 0.00 0.00 0.00 0.00 0.00 0.00 0.00 0.00 0.00 0.01 0.07 0.15 0.10 0.10 0.06 0.07 0.28 0.42 0.38 0.23 0.11 0.07 0.05 0.21 0.07 0.01 0.01 0.01 0.00 0.01 0.00 0.00 0.00 0.00 0.01 0.00 0.00 0.00 0.00 0.00 0.00 0.00 0.01 0.01 0.00 0.00 0.00 0.00 0.00 0.00 0.00 0.00
0.00 0.00 0.00 0.00 0.00 0.00 0.00 0.00 0.00 0.01 0.03 0.06 0.16 0.18 0.11 0.13 0.15 0.22 0.37 0.45 0.23 0.07 0.04 0.02 0.01 0.08 0.08 0.02 0.00 0.00 0.00 0.00 0.00 0.00 0.00 0.00 0.00 0.00 0.00 0.00 0.00 0.01 0.01 0.00 0.00 0.00 0.00 0.00 0.00 0.00 0.00 0.00 0.00 0.00
0.03 0.01 0.00 0.00 0.00 0.00 0.00 0.00 0.01 0.03 0.06 0.19 0.19 0.11 0.13 0.21 0.28 0.23 0.33 0.32 0.09 0.01 0.00 0.00 0.00 0.00 0.02 0.00 0.00 0.00 0.00 0.00 0.00 0.00 0.00 0.00 0.00 0.00 0.00 0.00 0.00 0.00 0.00 0.00 0.00 0.00 0.01 0.01 0.00 0.00 0.00 0.00 0.00 0.00
0.05 0.02 0.00 0.00 0.00 0.00 0.00 0.01 0.04 0.10 0.30 0.31 0.08 0.07 0.14 0.20 0.18 0.15 0.13 0.05 0.01 0.00 0.00 0.00 0.00 0.00 0.00 0.00 0.00 0.00 0.00 0.00 0.00 0.00 0.00 0.00 0.00 0.00 0.00 0.00 0.00 0.00 0.00 0.00 0.01 0.02 0.02 0.00 0.00 0.00 0.00 0.00 0.00 0.00
0.06 0.05 0.03 0.01 0.03 0.03 0.05 0.07 0.13 0.31 0.31 0.17 0.17 0.15 0.24 0.11 0.06 0.02 0.00 0.00 0.00 0.00 0.00 0.00 0.00 0.00 0.00 0.00 0.01 0.04 0.03 0.01 0.00 0.00 0.00 0.00 0.00 0.00 0.00 0.00 0.01 0.02 0.02 0.03 0.04 0.01 0.00 0.00 0.00 0.00 0.00 0.00 0.00 0.00
0.07 0.05 0.06 0.06 0.05 0.08 0.12 0.16 0.16 0.16 0.14 0.22 0.16 0.10 0.11 0.02 0.01 0.01 0.00 0.00 0.00 0.00 0.00 0.00 0.00 0.00 0.00 0.00 0.01 0.02 0.04 0.03 0.01 0.00 0.00 0.00 0.00 0.00 0.00 0.00 0.01 0.01 0.01 0.00 0.00 0.00 0.00 0.00 0.00 0.00 0.00 0.00 0.00 0.00
0.03 0.01 0.06 0.10 0.11 0.14 0.15 0.13 0.09 0.07 0.08 0.06 0.06 0.03 0.01 0.00 0.00 0.00 0.00 0.00 0.00 0.00 0.00 0.00 0.00 0.00 0.00 0.00 0.00 0.00 0.00 0.00 0.00 0.00 0.00 0.00 0.00 0.00 0.00 0.00 0.00 0.00 0.00 0.00 0.00 0.00 0.00 0.00 0.00 0.00 0.00 0.00 0.00 0.00
0.03 0.02 0.07 0.09 0.12 0.13 0.09 0.03 0.01 0.00 0.00 0.00 0.01 0.01 0.01 0.01 0.01 0.01 0.01 0.01 0.00 0.00 0.00 0.00 0.00 0.00 0.00 0.00 0.00 0.00 0.00 0.00 0.00 0.00 0.00 0.00 0.00 0.00 0.01 0.01 0.01 0.00 0.00 0.01 0.01 0.00 0.00 0.00 0.00 0.00 0.00 0.00 0.00 0.00
0.08 0.05 0.03 0.03 0.03 0.03 0.01 0.00 0.00 0.00 0.00 0.01 0.01 0.02 0.01 0.01 0.02 0.02 0.02 0.01 0.00 0.00 0.00 0.00 0.00 0.00 0.00 0.00 0.00 0.01 0.01 0.01 0.00 0.00 0.00 0.00 0.01 0.01 0.01 0.01 0.01 0.00 0.00 0.00 0.00 0.00 0.00 0.00 0.00 0.00 0.00 0.00 0.00 0.00
0.03 0.02 0.01 0.02 0.01 0.00 0.03 0.03 0.01 0.00 0.03 0.04 0.04 0.03 0.02 0.02 0.03 0.04 0.03 0.01 0.00 0.00 0.00 0.00 0.00 0.00 0.01 0.02 0.02 0.03 0.03 0.04 0.05 0.07 0.09 0.10 0.08 0.05 0.06 0.05 0.01 0.00 0.00 0.00 0.00 0.00 0.00 0.00 0.00 0.00 0.00 0.00 0.00 0.00
0.00 0.00 0.00 0.00 0.01 0.01 0.01 0.01 0.00 0.00 0.03 0.04 0.05 0.04 0.03 0.07 0.07 0.06 0.05 0.03 0.01 0.01 0.01 0.02 0.05 0.06 0.07 0.07 0.07 0.08 0.09 0.09 0.06 0.07 0.10 0.11 0.10 0.07 0.06 0.04 0.02 0.01 0.00 0.00 0.00 0.00 0.00 0.01 0.01 0.00 0.00 0.00 0.00 0.00
0.00 0.00 0.00 0.00 0.00 0.00 0.01 0.01 0.01 0.01 0.02 0.04 0.05 0.02 0.06 0.04 0.03 0.02 0.00 0.00 0.00 0.03 0.05 0.08 0.10 0.12 0.12 0.11 0.12 0.10 0.09 0.06 0.05 0.03 0.04 0.06 0.07 0.04 0.04 0.04 0.03 0.02 0.02 0.02 0.02 0.03 0.03 0.02 0.01 0.00 0.00 0.00 0.00 0.00
0.00 0.00 0.00 0.00 0.00 0.00 0.01 0.02 0.01 0.02 0.02 0.05 0.04 0.02 0.04 0.04 0.03 0.02 0.00 0.01 0.04 0.07 0.11 0.12 0.12 0.12 0.08 0.09 0.10 0.08 0.08 0.04 0.03 0.02 0.02 0.01 0.02 0.02 0.02 0.03 0.01 0.02 0.02 0.02 0.02 0.01 0.01 0.00 0.00 0.00 0.00 0.00 0.00 0.00
0.00 0.00 0.00 0.00 0.00 0.00 0.01 0.00 0.01 0.03 0.03 0.05 0.04 0.03 0.04 0.05 0.04 0.01 0.02 0.04 0.07 0.09 0.12 0.09 0.10 0.10 0.07 0.09 0.05 0.04 0.04 0.01 0.01 0.01 0.01 0.01 0.01 0.02 0.01 0.02 0.01 0.01 0.01 0.02 0.02 0.01 0.00 0.00 0.00 0.00 0.00 0.00 0.00 0.00
0.00 0.00 0.00 0.00 0.00 0.00 0.00 0.00 0.01 0.03 0.03 0.03 0.02 0.04 0.06 0.04 0.01 0.01 0.03 0.04 0.07 0.08 0.05 0.06 0.05 0.04 0.03 0.02 0.02 0.02 0.03 0.01 0.00 0.01 0.01 0.01 0.01 0.02 0.01 0.02 0.01 0.01 0.01 0.01 0.01 0.00 0.00 0.00 0.00 0.00 0.00 0.00 0.00 0.00
0.00 0.00 0.00 0.00 0.00 0.00 0.00 0.00 0.01 0.01 0.03 0.03 0.03 0.04 0.06 0.02 0.01 0.02 0.03 0.04 0.04 0.03 0.04 0.03 0.02 0.02 0.02 0.02 0.02 0.02 0.02 0.00 0.00 0.00 0.02 0.01 0.01 0.01 0.01 0.01 0.01 0.00 0.00 0.00 0.00 0.00 0.00 0.00 0.00 0.00 0.00 0.00 0.00 0.00
0.00 0.00 0.00 0.00 0.00 0.00 0.00 0.00 0.01 0.01 0.01 0.01 0.02 0.03 0.01 0.00 0.00 0.01 0.02 0.02 0.02 0.02 0.02 0.01 0.01 0.00 0.00 0.01 0.00 0.01 0.01 0.00 0.00 0.00 0.01 0.01 0.01 0.00 0.00 0.00 0.00 0.00 0.00 0.00 0.00 0.00 0.00 0.00 0.00 0.00 0.00 0.00 0.00 0.00
0.00 0.00 0.00 0.01 0.00 0.00 0.00 0.00 0.00 0.00 0.00 0.01 0.01 0.01 0.00 0.00 0.00 0.01 0.01 0.01 0.01 0.02 0.01 0.01 0.00 0.00 0.00 0.00 0.01 0.01 0.00 0.00 0.00 0.00 0.00 0.00 0.00 0.00 0.00 0.00 0.00 0.00 0.00 0.00 0.00 0.00 0.00 0.00 0.00 0.00 0.00 0.00 0.00 0.00
0.01 0.00 0.00 0.00 0.00 0.00 0.00 0.00 0.00 0.00 0.01 0.01 0.00 0.00 0.00 0.00 0.01 0.02 0.02 0.02 0.01 0.01 0.00 0.00 0.00 0.00 0.00 0.00 0.00 0.00 0.00 0.00 0.00 0.00 0.00 0.00 0.00 0.00 0.00 0.00 0.00 0.00 0.00 0.00 0.00 0.00 0.00 0.00 0.00 0.00 0.00 0.00 0.00 0.00
0.00 0.00 0.00 0.00 0.00 0.00 0.00 0.01 0.01 0.01 0.01 0.00 0.00 0.00 0.00 0.01 0.03 0.02 0.03 0.02 0.00 0.00 0.00 0.00 0.00 0.00 0.00 0.00 0.00 0.00 0.00 0.00 0.00 0.00 0.00 0.00 0.00 0.00 0.00 0.00 0.00 0.00 0.00 0.00 0.00 0.00 0.00 0.00 0.00 0.00 0.00 0.00 0.00 0.00
0.00 0.00 0.00 0.00 0.00 0.01 0.02 0.01 0.00 0.00 0.00 0.00 0.00 0.00 0.01 0.02 0.03 0.02 0.01 0.01 0.00 0.00 0.00 0.00 0.00 0.00 0.00 0.00 0.00 0.00 0.00 0.00 0.00 0.00 0.00 0.00 0.00 0.00 0.00 0.00 0.00 0.00 0.00 0.00 0.00 0.00 0.00 0.00 0.00 0.00 0.00 0.00 0.00 0.00
0.00 0.00 0.00 0.00 0.01 0.01 0.00 0.00 0.00 0.00 0.00 0.00 0.00 0.00 0.01 0.02 0.01 0.01 0.01 0.01 0.00 0.00 0.00 0.00 0.00 0.00 0.00 0.00 0.00 0.00 0.00 0.00 0.00 0.00 0.00 0.00 0.00 0.00 0.00 0.00 0.00 0.00 0.00 0.00 0.00 0.00 0.00 0.00 0.00 0.00 0.00 0.00 0.00 0.00
0.00 0.00 0.00 0.00 0.01 0.01 0.01 0.00 0.00 0.00 0.00 0.00 0.00 0.00 0.00 0.00 0.00 0.00 0.01 0.00 0.00 0.00 0.00 0.00 0.00 0.00 0.00 0.00 0.00 0.00 0.00 0.00 0.00 0.00 0.00 0.00 0.00 0.00 0.00 0.00 0.00 0.00 0.00 0.00 0.00 0.00 0.00 0.00 0.00 0.00 0.00 0.00 0.00 0.00
0.00 0.00 0.00 0.00 0.01 0.01 0.03 0.01 0.00 0.00 0.00 0.00 0.00 0.00 0.00 0.00 0.00 0.01 0.01 0.00 0.00 0.00 0.00 0.00 0.00 0.00 0.00 0.00 0.00 0.00 0.00 0.00 0.00 0.00 0.00 0.00 0.00 0.00 0.00 0.00 0.00 0.00 0.00 0.00 0.00 0.00 0.00 0.00 0.00 0.00 0.00 0.00 0.00 0.00
MSLP
975.66 976.73 978.40 980.12 981.67 983.16 985.16 988.05 990.52 992.72 994.69 996.36 997.88 999.26 1000.58 1002.01 1003.53 1004.75 1005.35 1005.39 1005.64 1005.51 1004.03 1003.33 1002.68 1002.93 1003.44 1003.55 1003.75 1004.67 1006.12 1006.38 1007.74 1008.67 1009.73 1009.58 1010.08 1009.13 1009.10 1009.25 1009.90 1011.05 1012.75 1014.06 1014.18 1013.51 1011.37 1008.79 1008.97 1008.86 1008.90 1009.36 1009.96 1010.85
977.07 977.14 978.75 980.47 982.08 984.33 986.82 989.15 991.28 993.18 994.89 996.46 997.91 999.24 1000.73 1002.27 1003.60 1004.81 1005.41 1005.44 1005.92 1006.11 1004.86 1004.05 1003.00 1002.54 1002.54 1002.00 1002.79 1003.68 1003.78 1004.67 1005.65 1007.37 1008.84 1009.18 1009.68 1009.62 1009.57 1009.60 1009.33 1009.75 1009.69 1011.01 1011.55 1010.57 1009.30 1008.67 1008.56 1008.34 1008.50 1009.41 1010.66 1011.27
981.30 981.63 982.39 983.58 985.09 986.92 988.76 990.55 992.27 993.87 995.36 996.79 998.14 999.56 1000.86 1002.04 1003.29 1004.27 1005.14 1005.04 1006.20 1006.40 1004.48 1003.52 1002.23 1001.70 1001.65 1001.66 1001.29 1002.61 1003.73 1003.94 1004.63 1005.48 1007.22 1008.48 1008.63 1008.84 1009.11 1008.75 1008.65 1008.54 1008.52 1009.33 1010.26 1009.61 1009.38 1009.25 1009.22 1009.06 1009.22 1009.79 1010.68 1011.41
984.82 985.14 985.78 986.70 987.85 989.15 990.52 991.86 993.22 994.59 995.87 997.12 998.46 999.53 1000.66 1002.13 1002.81 1004.68 1004.24 1004.49 1005.71 1005.82 1004.98 1002.56 1001.40 1001.36 1000.93 1000.88 1000.87 1001.45 1002.27 1003.52 1004.66 1005.74 1007.03 1007.95 1008.24 1007.61 1008.08 1007.53 1008.90 1007.73 1007.95 1008.80 1009.66 1009.86 1009.78 1009.78 1010.02 1010.11 1010.66 1011.02 1011.53 1012.28
987.41 987.76 988.28 988.97 989.82 990.79 991.87 993.00 994.15 995.27 996.40 997.53 998.60 999.59 1000.16 1001.27 1002.46 1003.50 1003.89 1005.02 1005.39 1006.34 1005.29 1003.75 1002.17 1001.54 1001.16 1000.74 1000.71 1001.34 1002.30 1003.38 1004.85 1006.62 1007.33 1007.76 1007.36 1007.59 1007.94 1007.79 1007.16 1007.27 1006.80 1007.66 1008.08 1007.92 1008.43 1009.51 1010.54 1011.12 1011.47 1012.10 1012.53 1012.88
989.09 989.47 990.02 990.67 991.37 992.18 993.09 993.95 994.74 995.73 996.55 997.78 998.76 999.51 1000.35 1001.10 1001.27 1002.70 1004.73 1005.32 1005.83 1005.86 1006.52 1004.74 1002.70 1001.94 1001.33 1000.88 1001.30 1001.85 1002.60 1003.75 1004.79 1005.80 1007.65 1007.85 1007.47 1007.55 1008.29 1007.87 1006.24 1005.87 1005.95 1005.83 1006.46 1007.79 1008.74 1009.64 1010.92 1011.76 1012.38 1013.03 1013.46 1013.93
990.37 990.72 991.15 991.81 992.50 993.22 993.92 994.56 995.22 995.60 996.78 997.82 998.77 999.75 1000.64 1001.33 1002.09 1002.92 1003.83 1003.80 1005.06 1006.19 1006.27 1004.76 1003.19 1002.33 1002.05 1001.79 1002.78 1003.49 1003.77 1004.64 1005.12 1006.42 1007.15 1007.86 1008.08 1007.73 1008.52 1007.70 1006.61 1006.74 1006.35 1006.63 1007.14 1008.02 1010.47 1010.83 1011.77 1012.60 1013.11 1013.97 1014.62 1015.26
991.66 991.91 992.29 992.83 993.41 994.17 994.81 995.67 996.05 996.67 997.59 998.60 999.56 1000.36 1001.32 1002.30 1003.08 1003.73 1003.09 1003.02 1003.69 1006.03 1005.69 1005.16 1003.93 1003.11 1002.57 1003.07 1004.01 1004.39 1004.96 1005.40 1006.39 1006.97 1007.74 1008.34 1008.20 1008.23 1008.02 1007.10 1007.39 1007.79 1007.44 1007.82 1008.27 1008.09 1009.18 1010.91 1012.15 1013.40 1014.14 1014.65 1015.61 1016.49
992.80 993.01 993.40 993.87 994.42 995.09 995.73 996.40 997.01 997.71 998.46 999.24 999.97 1001.08 1002.45 1003.34 1003.92 1003.31 1003.24 1003.70 1004.01 1005.56 1005.53 1005.42 1004.46 1003.83 1003.47 1004.06 1004.73 1005.44 1005.59 1007.22 1007.38 1007.47 1008.11 1008.31 1008.59 1008.10 1007.01 1006.81 1008.07 1008.35 1007.70 1008.68 1009.39 1010.29 1011.02 1011.78 1013.09 1014.22 1015.01 1015.80 1016.36 1017.60
993.89 994.20 994.53 994.88 995.33 995.97 996.59 997.29 998.01 998.73 999.35 1000.07 1000.82 1001.54 1002.55 1002.61 1002.39 1002.89 1004.49 1004.54 1004.84 1005.26 1005.42 1004.93 1004.28 1004.44 1004.14 1003.97 1005.53 1005.99 1006.48 1007.71 1007.99 1007.91 1007.75 1008.47 1007.78 1007.27 1006.97 1006.97 1007.78 1008.68 1008.54 1008.94 1009.84 1011.84 1011.89 1013.22 1014.10 1015.06 1015.89 1016.58 1017.29 1018.20
994.58 995.07 995.49 995.85 996.25 996.74 997.26 997.90 998.41 999.20 999.87 1000.47 1001.25 1001.36 1001.47 1001.53 1002.47 1003.74 1004.62 1005.21 1005.20 1005.33 1005.03 1004.19 1004.54 1003.91 1003.79 1004.63 1005.80 1006.55 1006.97 1007.47 1007.70 1007.67 1007.74 1007.89 1007.54 1007.15 1007.06 1007.20 1007.87 1008.69 1008.92 1009.38 1009.84 1010.94 1011.71 1012.59 1014.00 1015.42 1016.75 1017.67 1018.41 1019.23
995.18 995.73 996.20 996.51 996.89 997.29 997.60 997.75 998.01 998.64 999.54 999.78 999.90 1000.49 1001.56 1002.05 1003.48 1004.44 1004.85 1005.02 1004.84 1004.49 1004.42 1004.81 1004.73 1004.83 1004.93 1004.93 1005.95 1007.16 1007.48 1007.71 1007.68 1007.43 1007.96 1007.92 1007.18 1007.19 1007.45 1007.81 1008.33 1008.88 1009.53 1010.27 1010.85 1011.78 1012.89 1014.00 1014.97 1016.22 1017.37 1018.46 1019.42 1020.30
995.58 995.92 996.41 997.39 998.12 998.45 998.42 998.80 999.09 999.78 1000.05 1000.11 1000.36 1001.04 1001.56 1002.84 1003.63 1004.07 1004.32 1004.49 1004.63 1004.66 1004.65 1004.58 1005.40 1005.72 1006.01 1006.13 1006.85 1007.17 1007.87 1008.25 1007.88 1007.99 1007.93 1007.51 1007.51 1007.83 1008.20 1008.53 1009.22 1009.83 1010.52 1011.32 1012.47 1013.41 1014.06 1015.47 1016.49 1017.14 1018.39 1019.46 1020.23 1021.17
995.93 997.03 997.59 997.66 998.85 999.02 998.26 999.12 1000.03 1001.05 1001.52 1000.27 1000.63 1001.47 1002.38 1003.10 1003.46 1003.77 1004.07 1004.19 1004.35 1004.45 1004.61 1005.07 1005.77 1006.06 1006.52 1006.81 1007.44 1007.87 1008.62 1008.37 1008.92 1008.87 1008.03 1007.78 1008.18 1008.76 1009.17 1009.70 1010.16 1011.31 1011.95 1012.77 1013.65 1014.85 1015.75 1016.48 1017.56 1018.54 1019.50 1020.38 1021.04 1021.98
996.25 996.95 997.49 998.32 998.88 999.19 998.88 1000.18 1001.26 1001.78 1001.79 1001.89 1002.00 1003.34 1003.59 1003.81 1004.12 1004.42 1004.35 1004.44 1004.74 1004.94 1005.06 1005.39 1005.82 1006.03 1006.77 1007.38 1007.96 1008.40 1008.71 1008.69 1008.92 1008.70 1008.45 1008.55 1009.19 1009.89 1010.62 1011.32 1011.80 1012.69 1013.55 1014.46 1015.33 1016.08 1016.91 1017.67 1018.54 1019.73 1020.68 1021.36 1022.09 1022.89
996.59 996.88 998.23 998.20 998.96 999.59 1000.30 1001.39 1002.17 1002.58 1002.57 1003.20 1004.48 1004.75 1005.09 1005.21 1005.22 1005.08 1005.11 1005.27 1005.26 1005.10 1005.10 1005.30 1006.40 1007.10 1007.91 1008.08 1008.43 1008.68 1008.90 1009.16 1009.32 1009.30 1009.33 1009.64 1010.16 1010.86 1011.76 1012.68 1013.36 1014.05 1014.89 1015.65 1016.41 1017.17 1018.09 1018.88 1019.66 1020.62 1021.62 1022.45 1023.20 1023.80
996.74 998.38 998.85 998.64 999.02 999.91 1001.00 1001.88 1002.57 1003.62 1004.41 1005.20 1005.93 1006.09 1005.89 1006.14 1006.42 1006.42 1006.21 1006.20 1006.02 1006.31 1006.84 1006.84 1007.35 1007.99 1008.25 1008.76 1009.50 1009.75 1010.09 1010.29 1010.12 1010.18 1010.52 1010.90 1011.43 1012.26 1013.11 1013.88 1014.65 1015.36 1016.14 1016.95 1017.73 1018.54 1019.28 1020.13 1020.86 1021.53 1022.37 1023.34 1023.87 1024.58
998.78 999.06 998.66 998.85 999.29 999.93 1000.80 1001.71 1002.88 1004.38 1005.74 1006.40 1006.68 1006.94 1006.96 1007.15 1007.23 1007.33 1007.25 1007.04 1006.99 1007.42 1007.53 1008.19 1008.39 1009.23 1009.84 1010.14 1010.67 1010.99 1011.11 1011.31 1011.29 1011.52 1011.94 1012.38 1012.88 1013.63 1014.28 1015.05 1016.04 1016.77 1017.49 1018.23 1018.88 1019.67 1020.34 1021.06 1021.73 1022.49 1023.12 1023.81 1024.56 1025.24
999.43 999.06 998.84 998.60 998.64 999.79 1001.90 1003.30 1003.91 1005.89 1007.24 1007.39 1007.61 1007.60 1007.82 1008.62 1009.13 1008.93 1008.53 1008.22 1008.12 1008.03 1008.66 1010.09 1011.10 1011.87 1012.15 1011.96 1011.87 1011.97 1012.13 1012.35 1012.67 1013.14 1013.47 1013.96 1014.38 1014.95 1015.85 1016.68 1017.41 1018.16 1018.81 1019.50 1020.11 1020.91 1021.70 1022.24 1022.86 1023.39 1024.04 1024.64 1025.30 1025.96
999.01 999.08 999.09 998.87 998.71 1001.40 1003.84 1005.19 1005.31 1006.46 1007.75 1008.57 1008.85 1009.21 1009.58 1010.24 1010.10 1009.92 1009.56 1009.40 1009.17 1009.87 1011.76 1013.38 1014.51 1014.60 1014.03 1013.48 1013.05 1013.05 1013.23 1013.50 1013.68 1014.40 1015.36 1015.98 1016.40 1016.74 1017.43 1018.07 1018.90 1019.67 1020.35 1021.12 1021.79 1022.37 1023.02 1023.71 1024.32 1024.83 1025.30 1025.81 1026.31 1026.82
999.65 1000.16 1000.02 999.77 1001.56 1003.22 1005.20 1006.06 1006.48 1007.37 1008.07 1008.71 1009.25 1009.54 1010.86 1011.15 1011.18 1011.24 1011.29 1011.32 1011.57 1014.10 1015.69 1016.74 1016.63 1016.23 1015.62 1014.87 1014.51 1014.43 1014.64 1014.77 1015.26 1015.80 1016.74 1017.52 1018.23 1018.54 1019.22 1019.85 1020.34 1021.06 1021.78 1022.59 1023.25 1024.03 1024.53 1025.19 1025.75 1026.21 1026.53 1026.91 1027.08 1027.31
1001.54 1001.11 1001.43 1001.73 1003.65 1005.31 1006.69 1007.21 1007.40 1007.75 1008.26 1008.98 1009.25 1009.90 1011.08 1012.04 1012.73 1013.55 1014.36 1014.84 1016.97 1018.36 1018.24 1018.33 1018.16 1017.71 1017.14 1016.91 1016.82 1016.68 1016.91 1016.88 1017.48 1017.99 1018.59 1019.17 1019.95 1020.60 1021.22 1021.72 1022.06 1022.85 1023.58 1024.28 1024.89 1025.55 1026.15 1026.60 1026.91 1027.22 1027.52 1027.80 1027.82 1027.96
1002.07 1002.30 1003.73 1004.86 1006.08 1007.31 1008.82 1008.17 1008.17 1008.51 1008.97 1009.70 1010.24 1010.92 1011.99 1013.33 1014.76 1015.45 1017.37 1019.29 1020.42 1020.77 1020.12 1019.76 1019.67 1019.42 1019.11 1019.11 1018.73 1018.85 1019.03 1019.02 1019.63 1020.37 1020.94 1021.48 1022.10 1022.71 1023.10 1023.63 1024.10 1024.59 1025.27 1025.95 1026.38 1026.87 1027.37 1027.71 1028.00 1028.29 1028.53 1028.70 1028.84 1029.03
1003.21 1005.41 1007.22 1008.45 1008.85 1010.01 1009.77 1009.81 1009.72 1009.97 1010.40 1010.96 1011.65 1012.48 1013.41 1015.02 1016.41 1018.10 1020.21 1021.80 1022.57 1022.25 1021.55 1021.34 1020.96 1020.87 1020.83 1020.70 1021.01 1021.33 1021.49 1021.42 1021.76 1022.37 1022.97 1023.28 1023.92 1024.86 1025.31 1025.84 1026.27 1026.67 1027.05 1027.46 1027.89 1028.34 1028.71 1029.03 1029.24 1029.49 1029.71 1029.83 1029.91 1030.02
1006.45 1009.89 1010.51 1011.11 1010.96 1011.44 1011.72 1011.89 1011.83 1011.76 1012.45 1012.72 1013.27 1014.04 1015.17 1016.35 1018.12 1020.30 1022.10 1023.44 1023.76 1023.62 1023.35 1023.09 1022.93 1022.82 1022.94 1023.30 1023.44 1023.58 1023.68 1023.51 1023.80 1024.35 1025.10 1025.34 1025.77 1026.36 1027.00 1027.58 1028.10 1028.55 1028.73 1028.94 1029.49 1029.88 1030.20 1030.32 1030.46 1030.63 1030.80 1030.88 1030.92 1030.90
1010.52 1012.31 1012.46 1012.69 1012.91 1013.07 1013.48 1014.16 1014.09 1014.26 1014.32 1014.68 1015.29 1016.22 1017.42 1018.95 1020.88 1022.74 1023.98 1024.70 1025.05 1025.09 1024.98 1024.79 1024.74 1024.81 1025.03 1025.31 1025.45 1025.57 1025.77 1025.63 1025.63 1026.05 1027.19 1027.24 1027.33 1027.55 1028.24 1028.73 1029.18 1029.77 1030.08 1030.22 1030.56 1030.94 1031.08 1031.19 1031.33 1031.50 1031.57 1031.55 1031.48 1031.45
1013.27 1013.98 1013.80 1013.93 1013.95 1014.31 1015.41 1015.90 1016.16 1016.45 1016.96 1017.47 1018.06 1018.99 1020.19 1022.30 1023.78 1024.79 1025.39 1025.88 1026.08 1026.40 1026.43 1026.46 1026.51 1026.75 1027.06 1027.29 1027.32 1027.38 1027.38 1027.36 1027.53 1028.34 1028.93 1029.01 1029.22 1029.43 1029.73 1030.12 1030.33 1030.73 1030.79 1030.98 1031.14 1031.48 1031.63 1031.57 1031.65 1031.85 1031.93 1031.85 1031.78 1031.69
1014.38 1015.17 1015.72 1016.36 1016.49 1016.98 1017.98 1018.88 1019.28 1019.68 1019.74 1019.91 1020.76 1022.84 1023.87 1025.20 1025.99 1026.34 1026.57 1027.07 1027.21 1027.48 1027.82 1028.18 1028.48 1028.71 1028.95 1029.16 1029.15 1029.06 1029.11 1029.28 1029.51 1029.79 1030.09 1030.62 1030.98 1031.20 1031.27 1031.24 1031.35 1031.04 1031.28 1031.50 1031.74 1031.14 1030.98 1031.11 1031.46 1031.81 1032.05 1032.07 1031.85 1031.06
1016.25 1016.76 1017.04 1018.62 1018.86 1019.72 1020.77 1021.39 1022.16 1022.33 1022.34 1022.06 1023.45 1024.97 1026.27 1027.18 1027.71 1027.47 1027.78 1027.96 1028.23 1028.56 1029.10 1029.69 1030.17 1030.27 1030.40 1030.61 1030.76 1030.80 1030.71 1030.65 1030.89 1031.65 1032.07 1032.85 1032.91 1032.94 1032.73 1032.50 1032.39 1032.28 1032.34 1032.23 1031.53 1030.75 1030.29 1030.41 1030.52 1031.04 1031.46 1031.68 1031.29 1030.99
1018.11 1017.99 1019.19 1020.67 1021.71 1022.93 1023.70 1023.87 1024.51 1024.25 1023.52 1023.71 1024.67 1026.37 1027.59 1028.80 1029.07 1028.84 1029.00 1029.34 1029.72 1030.27 1030.78 1031.06 1031.38 1031.48 1032.27 1032.31 1032.80 1032.54 1032.45 1032.33 1032.49 1032.80 1033.38 1033.74 1033.74 1033.69 1033.57 1033.51 1033.47 1033.62 1033.23 1033.09 1032.36 1031.78 1031.41 1031.76 1031.04 1031.12 1031.89 1031.74 1031.70 1031.71
1019.36 1019.85 1021.34 1022.68 1023.87 1024.78 1025.09 1025.22 1025.29 1025.50 1025.90 1026.51 1027.41 1028.10 1029.25 1029.97 1030.43 1030.69 1030.91 1031.26 1031.48 1031.68 1032.02 1032.61 1032.75 1032.88 1033.16 1033.53 1034.04 1033.70 1033.83 1033.58 1033.38 1033.35 1033.38 1033.53 1033.76 1033.93 1034.07 1034.18 1034.00 1033.96 1033.92 1033.71 1033.13 1032.84 1032.67 1032.85 1033.09 1032.88 1032.82 1032.63 1032.47 1032.30
1021.62 1022.67 1023.15 1024.37 1024.94 1024.87 1025.20 1025.69 1027.00 1027.79 1028.43 1028.86 1029.50 1029.69 1030.56 1031.32 1032.13 1032.26 1032.52 1032.65 1032.81 1033.38 1033.62 1033.61 1033.79 1033.78 1033.83 1033.84 1033.92 1034.03 1034.22 1034.25 1034.01 1033.71 1033.62 1033.73 1034.07 1034.13 1034.04 1033.77 1033.83 1033.80 1033.90 1033.81 1033.56 1033.37 1033.38 1033.86 1033.77 1033.60 1033.49 1033.34 1033.12 1032.89
1023.54 1023.61 1024.07 1024.83 1025.28 1025.46 1025.46 1026.17 1027.61 1029.01 1029.40 1030.09 1030.62 1031.19 1032.19 1032.56 1033.00 1033.14 1033.23 1033.69 1034.15 1034.19 1034.44 1034.16 1033.69 1033.59 1033.74 1034.14 1034.35 1034.40 1034.23 1034.42 1034.06 1033.38 1033.29 1033.25 1033.40 1033.41 1033.58 1033.66 1033.67 1033.62 1033.75 1033.73 1033.68 1033.66 1033.81 1034.19 1034.19 1034.11 1034.00 1033.84 1033.61 1033.35
Thickness
5406 5391 5376 5377 5391 5406 5410 5404 5398 5393 5389 5386 5383 5380 5378 5374 5377 5390 5411 5433 5452 5471 5497 5520 5539 5544 5554 5563 5564 5568 5561 5562 5557 5556 5554 5559 5552 5584 5583 5591 5584 5583 5562 5538 5523 5524 5572 5611 5606 5596 5599 5600 5597 5590
5416 5417 5409 5406 5408 5405 5400 5396 5391 5388 5384 5381 5379 5376 5373 5369 5375 5390 5409 5432 5447 5461 5488 5506 5526 5541 5557 5575 5574 5568 5581 5578 5580 5563 5554 5561 5561 5552 5572 5570 5591 5586 5590 5578 5577 5580 5603 5609 5609 5608 5603 5596 5588 5582
5397 5397 5397 5396 5394 5391 5389 5386 5383 5380 5378 5376 5374 5371 5371 5371 5376 5395 5412 5436 5443 5452 5483 5507 5530 5547 5558 5568 5580 5566 5567 5582 5585 5586 5573 5569 5578 5568 5572 5571 5589 5596 5596 5587 5587 5597 5599 5597 5597 5598 5598 5593 5585 5579
5381 5383 5382 5382 5381 5380 5379 5378 5376 5375 5373 5371 5369 5370 5369 5370 5384 5393 5417 5436 5443 5458 5479 5519 5538 5545 5560 5569 5577 5580 5581 5576 5574 5572 5563 5558 5563 5585 5575 5590 5574 5589 5591 5582 5576 5582 5587 5589 5583 5578 5572 5569 5567 5562
5373 5374 5374 5374 5374 5373 5372 5372 5370 5369 5367 5366 5367 5366 5372 5381 5389 5403 5424 5433 5447 5454 5478 5504 5528 5544 5553 5565 5575 5577 5577 5575 5565 5556 5542 5559 5569 5573 5565 5574 5580 5586 5592 5582 5584 5595 5591 5585 5568 5563 5562 5555 5551 5547
5367 5367 5367 5366 5366 5365 5364 5363 5363 5363 5365 5364 5363 5370 5378 5385 5403 5416 5414 5425 5444 5462 5468 5488 5522 5537 5549 5559 5563 5569 5569 5566 5564 5558 5545 5550 5562 5557 5548 5556 5591 5593 5596 5601 5601 5588 5573 5565 5555 5551 5544 5538 5534 5528
5363 5362 5362 5360 5359 5358 5358 5359 5360 5364 5362 5367 5373 5377 5382 5391 5404 5417 5423 5444 5455 5456 5469 5488 5513 5532 5540 5548 5541 5547 5552 5552 5557 5552 5547 5549 5548 5546 5526 5548 5581 5576 5578 5575 5574 5569 5548 5549 5537 5531 5528 5520 5514 5507
5361 5362 5362 5361 5360 5360 5361 5361 5364 5367 5369 5371 5374 5378 5383 5390 5402 5414 5444 5457 5465 5458 5471 5481 5505 5522 5534 5534 5534 5532 5534 5536 5537 5538 5533 5530 5538 5526 5548 5566 5556 5555 5559 5559 5554 5561 5553 5534 5525 5514 5508 5504 5494 5485
5360 5362 5363 5364 5364 5364 5365 5367 5368 5372 5375 5377 5380 5380 5380 5390 5404 5435 5454 5462 5469 5469 5471 5476 5506 5519 5524 5522 5522 5520 5524 5517 5519 5519 5515 5525 5519 5540 5560 5558 5542 5543 5554 5541 5537 5530 5526 5519 5508 5498 5491 5484 5477 5465
5355 5357 5360 5364 5366 5367 5367 5368 5370 5372 5374 5376 5379 5385 5389 5414 5435 5447 5451 5455 5460 5464 5471 5487 5501 5516 5519 5518 5509 5514 5508 5511 5519 5518 5518 5504 5525 5537 5538 5542 5538 5529 5532 5531 5521 5504 5505 5494 5487 5480 5472 5467 5460 5451
5351 5352 5356 5361 5365 5369 5371 5373 5377 5379 5382 5383 5391 5405 5424 5436 5444 5441 5442 5447 5457 5468 5476 5495 5500 5510 5512 5516 5508 5499 5506 5501 5521 5522 5523 5519 5529 5527 5531 5531 5526 5521 5521 5518 5517 5509 5502 5492 5479 5464 5451 5444 5437 5429
5356 5353 5355 5361 5367 5372 5378 5386 5395 5405 5408 5416 5426 5436 5434 5444 5441 5449 5452 5451 5466 5483 5484 5492 5494 5501 5497 5503 5504 5493 5500 5497 5519 5506 5509 5516 5517 5515 5516 5515 5512 5510 5505 5500 5497 5488 5478 5469 5461 5448 5437 5425 5415 5405
5377 5373 5373 5369 5368 5373 5383 5393 5403 5410 5418 5430 5440 5444 5451 5441 5459 5470 5473 5472 5479 5477 5484 5489 5487 5483 5485 5485 5489 5496 5496 5492 5489 5502 5511 5509 5507 5505 5504 5503 5499 5495 5488 5482 5472 5463 5456 5444 5436 5428 5415 5405 5397 5388
5404 5395 5393 5395 5390 5394 5409 5414 5418 5417 5423 5441 5454 5460 5458 5467 5463 5468 5474 5477 5473 5477 5485 5485 5480 5483 5475 5488 5480 5488 5477 5483 5478 5474 5484 5492 5493 5489 5486 5484 5481 5469 5463 5456 5449 5437 5430 5424 5414 5405 5396 5386 5379 5370
5430 5424 5421 5417 5418 5418 5426 5420 5418 5423 5431 5442 5451 5454 5452 5451 5454 5457 5461 5469 5469 5472 5477 5480 5479 5481 5481 5481 5470 5477 5483 5488 5475 5467 5479 5481 5476 5468 5463 5457 5453 5445 5439 5433 5427 5418 5409 5403 5396 5385 5376 5368 5358 5347
5449 5448 5440 5442 5438 5437 5436 5432 5431 5434 5440 5441 5435 5449 5443 5453 5457 5458 5463 5467 5467 5473 5476 5479 5479 5484 5474 5473 5475 5466 5476 5476 5464 5465 5465 5466 5459 5453 5445 5438 5434 5428 5421 5415 5408 5401 5393 5385 5376 5367 5355 5344 5335 5327
5465 5452 5449 5453 5455 5450 5443 5440 5436 5428 5432 5432 5426 5427 5438 5443 5444 5448 5452 5457 5460 5465 5469 5455 5478 5474 5465 5468 5463 5455 5456 5450 5450 5450 5446 5446 5441 5433 5425 5419 5413 5408 5402 5395 5388 5382 5373 5363 5354 5346 5337 5326 5320 5309
5457 5458 5463 5464 5463 5463 5458 5451 5441 5437 5430 5427 5428 5427 5430 5431 5438 5441 5443 5447 5453 5450 5452 5462 5457 5452 5450 5455 5445 5437 5434 5431 5433 5432 5429 5425 5422 5415 5411 5405 5397 5390 5384 5377 5370 5361 5353 5344 5338 5328 5320 5311 5300 5291
5456 5463 5467 5470 5473 5466 5451 5442 5439 5427 5418 5419 5420 5423 5425 5419 5415 5420 5428 5434 5435 5439 5437 5429 5415 5414 5416 5420 5423 5421 5420 5419 5417 5412 5409 5405 5402 5397 5390 5383 5378 5370 5364 5357 5350 5340 5330 5322 5315 5307 5298 5289 5279 5268
5459 5461 5463 5468 5472 5451 5436 5427 5426 5421 5414 5408 5405 5403 5405 5401 5405 5410 5416 5420 5427 5422 5407 5396 5387 5387 5396 5400 5404 5405 5404 5403 5402 5395 5385 5379 5376 5374 5368 5361 5352 5344 5336 5328 5321 5313 5305 5295 5287 5279 5270 5261 5252 5243
5453 5451 5454 5459 5447 5437 5422 5418 5419 5413 5409 5407 5404 5401 5390 5391 5391 5393 5397 5401 5402 5383 5370 5358 5359 5365 5371 5380 5384 5385 5384 5384 5381 5377 5368 5360 5353 5349 5342 5335 5329 5321 5313 5304 5295 5284 5277 5268 5259 5250 5242 5232 5226 5220
5435 5441 5438 5440 5427 5415 5407 5403 5407 5403 5404 5400 5401 5398 5389 5383 5378 5372 5369 5361 5345 5336 5343 5341 5342 5347 5352 5354 5355 5357 5355 5354 5349 5345 5340 5336 5328 5321 5314 5308 5302 5292 5284 5275 5266 5256 5248 5240 5233 5227 5220 5211 5206 5199
5427 5427 5415 5409 5403 5397 5388 5393 5397 5396 5397 5391 5386 5385 5379 5368 5356 5354 5333 5321 5312 5310 5319 5324 5325 5326 5329 5329 5332 5330 5328 5329 5322 5315 5309 5303 5297 5290 5285 5279 5273 5266 5257 5248 5241 5233 5225 5218 5210 5202 5195 5187 5177 5169
5413 5391 5374 5366 5371 5360 5366 5376 5381 5382 5377 5375 5371 5367 5364 5347 5338 5323 5305 5293 5288 5292 5301 5302 5307 5308 5308 5308 5304 5301 5300 5300 5295 5289 5283 5278 5270 5259 5253 5246 5239 5233 5227 5220 5213 5205 5198 5190 5182 5175 5166 5156 5149 5141
5376 5349 5345 5336 5341 5346 5338 5343 5353 5361 5355 5354 5353 5351 5342 5331 5315 5297 5283 5272 5270 5271 5275 5279 5280 5282 5282 5277 5276 5273 5270 5271 5266 5259 5252 5249 5242 5234 5226 5218 5211 5204 5199 5192 5183 5175 5167 5160 5153 5146 5139 5130 5128 5119
5331 5328 5334 5331 5327 5331 5322 5314 5325 5321 5324 5333 5332 5322 5308 5296 5280 5266 5260 5253 5250 5252 5252 5256 5256 5255 5252 5250 5247 5245 5242 5242 5240 5233 5222 5220 5219 5215 5207 5199 5190 5180 5172 5165 5158 5149 5141 5133 5125 5118 5109 5107 5102 5093
5316 5313 5320 5320 5322 5321 5305 5296 5300 5292 5291 5292 5291 5276 5269 5248 5243 5245 5239 5234 5234 5232 5232 5232 5232 5231 5228 5225 5223 5221 5219 5218 5215 5206 5199 5195 5190 5185 5177 5169 5162 5157 5152 5145 5136 5128 5120 5112 5103 5096 5088 5080 5076 5069
5307 5301 5289 5279 5279 5283 5268 5256 5263 5267 5268 5275 5252 5224 5215 5207 5225 5223 5221 5217 5216 5215 5213 5210 5208 5206 5203 5201 5199 5199 5197 5193 5189 5184 5179 5171 5165 5160 5155 5149 5144 5139 5133 5126 5119 5111 5103 5097 5088 5079 5068 5059 5054 5047
5278 5277 5268 5247 5247 5245 5247 5243 5237 5238 5238 5241 5212 5206 5207 5205 5199 5205 5204 5203 5201 5199 5196 5192 5186 5184 5183 5180 5177 5175 5173 5171 5166 5154 5142 5133 5132 5134 5132 5128 5123 5118 5112 5106 5101 5095 5088 5078 5067 5058 5049 5039 5033 5027
5248 5248 5239 5216 5216 5218 5212 5213 5204 5206 5219 5216 5216 5205 5196 5185 5183 5186 5185 5183 5180 5176 5173 5171 5167 5164 5154 5156 5149 5154 5151 5148 5144 5137 5124 5117 5117 5117 5112 5108 5104 5099 5094 5086 5078 5071 5065 5056 5047 5036 5026 5018 5009 5001
5230 5229 5218 5208 5206 5194 5191 5194 5196 5193 5187 5188 5180 5182 5173 5169 5163 5163 5162 5160 5159 5156 5156 5151 5147 5141 5145 5137 5131 5128 5129 5132 5128 5125 5120 5115 5109 5104 5100 5095 5090 5084 5078 5070 5061 5051 5041 5030 5019 5010 5003 4997 4991 4985
5209 5189 5201 5197 5196 5195 5189 5176 5169 5167 5160 5159 5159 5155 5152 5145 5136 5144 5145 5144 5144 5140 5135 5130 5131 5132 5129 5128 5126 5123 5120 5116 5115 5113 5109 5104 5099 5094 5090 5085 5080 5074 5067 5057 5047 5037 5026 5015 5003 4994 4984 4978 4972 4966
5192 5185 5178 5183 5189 5188 5191 5183 5167 5159 5155 5152 5150 5143 5125 5125 5129 5130 5131 5131 5127 5124 5124 5123 5124 5123 5119 5117 5115 5112 5110 5108 5105 5102 5097 5093 5090 5086 5082 5078 5073 5066 5057 5048 5038 5028 5017 5006 4994 4984 4974 4965 4958 4951